Disclaimer

Please do not use the information listed here in-flight or in-navigation, as they are not provided to us by the airports but are provided by volunteers, so they might be outdated.

Search


Regions


Airport information page

Radio informations:
Tower (TWR) - 118.8 MHz
QUEBEC RDO - 123.15 MHz
Ground (GND) - 121.9 MHz
DEP - 128.175 MHz
Clearance delivery - 119.4 MHz
Automatic Terminal Information Service (ATIS) - 121.15 MHz
Approach (APP) - 135.15 MHz

Airport informations:
Latitude: 45° 19' 21.00" N
Longitude: 075° 40' 09.00" W
Elevation: 374 feet - 114 meters
Operating hours: 24 hour operations
Operating agency: Civil government, landing fees and diplomatic clearance may be required
Timezone: UTC-5(-4DT) - Second Sunday in March at 0200 to first Sunday in November at 0200 local time (Exception Arizona and that portion of Indiana in the Eastern Time Zone)
Fuel: Jet A1+, Jet A1 with icing inhibitor.

Jet A1, without icing nhibitor.

100/130 octane gasoline, leaded, MIL-L-5572F (GREEN)

80/87 octane gasoline, leaded, MIL-L-5572F (RED)

Runway information:
04/22 - 3300 x 75 feet< - >1006 x 23 meters
07/25 - 8000 x 200 feet< - >2438 x 61 meters
14/32 - 10000 x 200 feet< - >3048 x 61 meters

Recent METARs:
CYOW 200418Z 05012KT 1 1/2SM -SN OVC011 M21/M25 A3013 RMK SN2NS6 PRESFR SLP218
CYOW 200524Z 05012KT 3/4SM R32/P6000FT/D -SN BLSN VV006 M21/M24 A3011 RMK SN8 SLP210
CYOW 200538Z 05011KT 1SM R32/P6000FT/U -SN BLSN VV007 M21/M24 A3009 RMK SN8 PRESFR SLP205

Airport on the map: